Location: ???? ?????????
(31.1304°N, 31.7111°E)
Time: 18:52:17
(UTC+00:00)

ARGOS - Pass Details

Date: 29 October 2020
Orbit: 819 x 835 km, 98.4° (Epoch: 01 December)

Event Time Altitude Azimuth Distance (km) Brightness Sun altitude
Exits shadow 16:35:49 24° 40° (NE) 1,663 4.3 -19.5°
Drops below altitude 10° 16:38:42 10° 12° (NNE) 2,449 5.4 -20.2°
Sets 16:41:20 0° 2° (N) 3,387 6.3 -20.7°
